Voltar ao catálogo

THORAD AGENA D DEB

AtivoLEO
NORAD 4249·DEBRIS·🇺🇸 United States

Lançado Sep 30, 1969 de Vandenberg Space Force Base

Loading…

Próximas Passagens (próximas 24 horas)

TLE

AtualizadoSource: Space-Track

Época: Sep 14, 2026, 03:23 UTC

1 04249U 69082CY  26257.14097422  .00000400  00000-0  19783-3 0  9990
2 04249  70.0619 163.8931 0054683 123.5123 237.1240 14.23409492934641

Acompanhe THORAD AGENA D DEB em tempo real com AllMySat

Download on the App Store